Lid_Strength_Index
5 5 5 5 5 6 7 8 10 8 7 8 9 10 11 11 12 11 11 11 12 12 13 11 11 12 12 11 10 11 10 10 12 12 10 9 10 11 11 12 13 12 13 12
5 5 5 5 5 7 8 9 9 7 7 10 11 12 13 12 12 13 12 13 12 12 13 13 11 11 11 11 10 11 10 12 14 13 11 10 11 11 11 11 11 12 14 12
5 4 5 5 5 7 8 9 11 9 10 11 11 12 13 14 12 13 13 13 13 13 14 12 13 13 12 11 11 10 10 11 12 14 14 12 12 12 12 12 13 12 12 11
5 5 5 5 6 8 7 10 13 13 12 12 12 12 13 14 14 13 13 14 14 14 15 14 15 14 14 12 12 12 12 14 13 13 13 13 13 13 12 13 12 14 12 12
5 5 5 6 6 7 9 10 12 12 13 14 13 13 14 14 15 14 15 15 15 14 15 15 16 15 15 15 13 14 13 15 15 15 14 14 15 14 13 13 13 13 12 12
5 5 5 5 6 7 9 10 11 10 14 14 13 14 14 14 14 14 13 14 14 15 14 13 13 12 13 13 14 15 14 14 15 17 15 14 16 14 14 14 13 13 14 13
5 5 5 6 7 8 8 10 9 11 15 14 14 14 14 14 14 14 14 13 14 13 11 12 12 12 13 12 13 12 15 15 14 16 15 19 14 12 12 13 13 12 12 12
5 5 5 6 6 7 9 9 10 11 14 14 14 14 14 13 13 14 14 13 12 11 12 14 15 15 15 14 13 13 12 13 15 16 16 14 14 13 13 13 14 11 12 11
6 5 5 5 6 7 8 9 10 10 13 14 13 14 13 14 14 14 14 12 11 11 12 14 17 18 16 16 15 13 13 12 13 15 18 19 14 12 11 11 15 11 11 11
5 5 5 5 6 7 8 9 9 9 12 12 12 13 14 13 14 14 14 13 13 11 13 15 16 17 14 17 17 16 14 14 15 15 16 15 12 11 10 16 14 10 10 10
5 5 5 5 5 6 7 9 8 9 11 12 11 11 13 13 13 14 13 14 13 13 15 15 15 15 14 15 14 15 16 16 16 15 17 18 10 10 13 11 9 9 9 9
5 5 5 5 5 6 8 9 8 9 10 11 10 10 10 10 11 12 12 13 13 12 14 14 13 15 14 16 17 14 16 14 15 14 14 10 9 10 9 9 9 9 8 7
5 5 5 5 5 6 7 8 8 9 11 11 10 12 10 8 9 8 12 11 11 11 10 11 12 15 13 16 16 15 13 12 14 14 12 11 10 9 8 8 8 7 6 5
5 4 5 5 5 6 6 8 8 9 11 12 13 10 11 9 9 8 9 10 9 9 9 11 13 14 12 14 14 14 12 13 13 13 11 10 9 8 8 7 6 5 4 4
4 5 5 5 5 6 6 6 7 7 11 13 13 11 11 10 9 9 9 8 9 9 10 11 12 11 12 12 12 13 11 12 13 14 10 10 9 7 6 5 5 3 3 3
4 4 5 4 5 8 9 10 7 6 8 11 14 12 12 10 9 10 10 9 9 9 10 10 10 11 11 14 15 10 10 9 8 9 8 7 6 5 3 4 4 4 3 3
4 4 4 5 6 7 9 10 7 6 7 11 14 14 12 12 10 10 10 9 9 9 9 11 10 10 10 12 14 10 9 8 7 6 6 7 5 5 3 3 3 4 4 4
4 4 4 5 6 6 8 7 6 7 9 10 15 14 13 11 11 11 10 10 9 10 10 10 11 9 9 13 10 9 8 7 6 5 4 4 3 3 4 3 4 5 5 5
4 4 6 6 8 9 8 6 6 6 8 13 14 14 15 11 11 10 10 10 12 10 11 11 10 11 13 11 9 8 7 7 6 4 4 4 4 4 4 4 4 5 5 5
5 7 9 12 9 7 6 8 10 10 11 11 13 13 14 12 11 12 11 12 12 14 11 9 11 11 8 8 7 6 5 5 4 6 6 5 5 4 4 4 4 4 4 4
8 11 12 9 7 8 10 14 13 14 15 12 12 12 13 11 13 12 11 12 13 16 12 12 12 12 10 7 6 5 4 4 4 4 3 3 3 4 4 3 3 3 4 4
8 8 7 8 10 12 15 17 15 15 16 14 13 12 11 11 10 11 12 13 14 15 10 12 13 9 6 6 5 4 4 4 4 3 4 4 4 3 3 3 3 3 3 3
8 11 12 12 13 17 19 20 17 16 13 13 13 13 11 11 10 11 11 14 14 11 12 13 9 6 5 5 5 5 4 4 3 3 3 3 3 3 4 3 3 3 4 4
12 13 17 15 17 16 16 15 13 11 11 12 11 12 11 10 11 10 13 11 12 14 14 13 7 6 5 5 5 5 5 4 4 4 3 4 3 3 3 3 3 4 4 4
12 13 17 17 13 13 14 12 12 11 10 10 10 10 9 11 11 11 12 14 15 13 12 8 6 5 6 5 5 5 5 5 5 4 4 4 4 4 4 3 3 4 4 5
11 12 14 14 14 13 13 11 10 8 7 6 6 10 11 10 10 12 13 13 14 10 8 6 5 5 5 5 5 5 4 5 5 4 4 4 4 4 4 4 4 5 5 6
13 13 10 10 11 10 9 8 7 6 6 8 7 10 10 9 11 12 10 11 8 6 5 5 5 5 4 4 5 5 5 5 4 4 4 4 4 4 5 6 5 6 5 6